GFSNGP_prec_precacc24_237.txt.gz
Total_Precipitation_Accumulation
0.03 0.00 0.00 0.02 0.00 0.00 0.08 0.19 0.33 0.20 0.07 0.00 0.00 0.00 0.00 0.00 0.00 0.00 0.00 0.00 0.00 0.00 0.00 0.00 0.00 0.00 0.00 0.00 0.00 0.00 0.00 0.01 0.03 0.08 0.11 0.10 0.06 0.04 0.03 0.03 0.03 0.03 0.05 0.05
0.08 0.00 0.01 0.06 0.01 0.00 0.00 0.00 0.02 0.01 0.02 0.01 0.00 0.00 0.00 0.00 0.00 0.00 0.00 0.00 0.00 0.00 0.00 0.00 0.00 0.00 0.00 0.00 0.00 0.00 0.00 0.01 0.04 0.08 0.09 0.05 0.06 0.09 0.05 0.04 0.03 0.01 0.02 0.02
0.14 0.01 0.08 0.16 0.02 0.00 0.00 0.00 0.01 0.01 0.00 0.00 0.00 0.00 0.00 0.00 0.00 0.00 0.00 0.00 0.00 0.00 0.00 0.00 0.00 0.00 0.00 0.00 0.00 0.00 0.00 0.00 0.03 0.06 0.12 0.19 0.17 0.09 0.06 0.04 0.03 0.03 0.03 0.05
0.15 0.07 0.23 0.03 0.00 0.00 0.00 0.00 0.00 0.00 0.00 0.00 0.00 0.00 0.00 0.00 0.00 0.00 0.00 0.00 0.00 0.00 0.00 0.00 0.00 0.00 0.00 0.00 0.00 0.00 0.00 0.00 0.01 0.05 0.13 0.15 0.09 0.08 0.08 0.08 0.10 0.10 0.10 0.11
0.13 0.07 0.05 0.00 0.00 0.00 0.00 0.00 0.00 0.00 0.00 0.00 0.00 0.00 0.00 0.00 0.00 0.00 0.00 0.00 0.00 0.00 0.00 0.00 0.00 0.00 0.00 0.00 0.00 0.00 0.00 0.00 0.01 0.03 0.04 0.04 0.10 0.16 0.20 0.22 0.16 0.14 0.13 0.12
0.19 0.17 0.05 0.00 0.00 0.00 0.00 0.03 0.01 0.00 0.00 0.00 0.00 0.00 0.00 0.00 0.00 0.00 0.00 0.00 0.00 0.00 0.00 0.00 0.00 0.00 0.00 0.00 0.00 0.00 0.00 0.00 0.01 0.02 0.03 0.04 0.09 0.16 0.18 0.21 0.20 0.21 0.18 0.15
0.19 0.24 0.05 0.00 0.00 0.00 0.03 0.07 0.00 0.00 0.00 0.00 0.00 0.00 0.00 0.00 0.00 0.00 0.00 0.00 0.00 0.00 0.00 0.00 0.00 0.00 0.00 0.00 0.00 0.00 0.00 0.00 0.01 0.02 0.02 0.04 0.06 0.06 0.14 0.22 0.25 0.22 0.19 0.16
0.21 0.30 0.15 0.00 0.00 0.02 0.04 0.01 0.01 0.02 0.08 0.10 0.02 0.00 0.00 0.00 0.00 0.00 0.00 0.00 0.00 0.00 0.00 0.00 0.00 0.00 0.00 0.00 0.00 0.00 0.00 0.01 0.02 0.02 0.03 0.04 0.08 0.09 0.08 0.11 0.16 0.18 0.17 0.16
0.15 0.10 0.01 0.00 0.00 0.02 0.06 0.09 0.08 0.10 0.06 0.07 0.08 0.06 0.05 0.02 0.00 0.00 0.00 0.00 0.00 0.00 0.00 0.00 0.00 0.00 0.00 0.01 0.01 0.02 0.03 0.06 0.07 0.07 0.08 0.09 0.11 0.14 0.14 0.15 0.15 0.15 0.15 0.14
0.22 0.11 0.02 0.00 0.00 0.00 0.02 0.02 0.05 0.06 0.07 0.05 0.04 0.03 0.03 0.04 0.02 0.01 0.01 0.01 0.02 0.03 0.01 0.01 0.01 0.01 0.02 0.04 0.03 0.05 0.06 0.08 0.10 0.12 0.15 0.16 0.17 0.18 0.18 0.16 0.18 0.14 0.14 0.15
0.22 0.06 0.03 0.02 0.02 0.02 0.03 0.02 0.02 0.02 0.03 0.03 0.03 0.04 0.02 0.03 0.02 0.03 0.03 0.03 0.12 0.21 0.22 0.18 0.15 0.15 0.15 0.13 0.11 0.12 0.15 0.18 0.19 0.20 0.21 0.20 0.20 0.20 0.20 0.20 0.22 0.19 0.16 0.13
0.17 0.07 0.13 0.22 0.18 0.07 0.13 0.22 0.16 0.05 0.03 0.03 0.02 0.03 0.02 0.02 0.01 0.01 0.02 0.02 0.07 0.18 0.34 0.44 0.45 0.42 0.37 0.31 0.28 0.31 0.39 0.44 0.47 0.45 0.41 0.38 0.35 0.37 0.39 0.36 0.38 0.33 0.32 0.24
0.09 0.08 0.08 0.11 0.16 0.20 0.22 0.23 0.29 0.34 0.17 0.07 0.04 0.04 0.05 0.07 0.07 0.06 0.05 0.04 0.06 0.17 0.34 0.47 0.55 0.57 0.48 0.40 0.33 0.32 0.38 0.46 0.49 0.48 0.43 0.40 0.37 0.33 0.34 0.40 0.35 0.29 0.26 0.34
0.07 0.06 0.07 0.04 0.04 0.06 0.06 0.16 0.24 0.32 0.43 0.38 0.21 0.16 0.15 0.19 0.21 0.19 0.13 0.05 0.06 0.20 0.33 0.38 0.41 0.47 0.40 0.32 0.25 0.25 0.28 0.35 0.29 0.24 0.21 0.19 0.18 0.17 0.15 0.17 0.21 0.24 0.21 0.15
0.05 0.10 0.13 0.09 0.10 0.06 0.03 0.03 0.03 0.13 0.36 0.47 0.58 0.58 0.35 0.27 0.19 0.14 0.07 0.05 0.07 0.14 0.20 0.22 0.27 0.31 0.32 0.29 0.29 0.26 0.23 0.21 0.19 0.14 0.13 0.16 0.12 0.12 0.12 0.12 0.14 0.16 0.19 0.21
0.03 0.05 0.03 0.04 0.10 0.21 0.19 0.07 0.04 0.14 0.30 0.39 0.38 0.44 0.46 0.37 0.29 0.25 0.24 0.17 0.11 0.12 0.19 0.22 0.24 0.26 0.28 0.29 0.30 0.29 0.28 0.33 0.22 0.10 0.15 0.15 0.11 0.10 0.14 0.18 0.20 0.19 0.15 0.14
0.01 0.01 0.02 0.02 0.04 0.05 0.09 0.02 0.02 0.07 0.13 0.24 0.38 0.39 0.34 0.45 0.59 0.55 0.45 0.39 0.31 0.22 0.19 0.26 0.28 0.29 0.33 0.38 0.29 0.22 0.25 0.30 0.35 0.30 0.19 0.15 0.14 0.15 0.16 0.17 0.18 0.19 0.19 0.15
0.00 0.00 0.01 0.02 0.03 0.05 0.03 0.04 0.05 0.13 0.30 0.31 0.24 0.44 0.50 0.44 0.51 0.65 0.65 0.56 0.59 0.71 0.67 0.67 0.70 0.66 0.62 0.67 0.55 0.35 0.25 0.27 0.27 0.37 0.48 0.37 0.31 0.25 0.24 0.23 0.23 0.23 0.30 0.34
0.00 0.00 0.00 0.00 0.01 0.02 0.02 0.06 0.18 0.26 0.36 0.16 0.23 0.31 0.34 0.39 0.44 0.53 0.65 0.61 0.63 0.70 1.01 0.84 0.78 0.73 0.74 0.93 0.69 0.56 0.33 0.26 0.27 0.30 0.42 0.56 0.52 0.41 0.34 0.30 0.30 0.32 0.30 0.30
0.00 0.01 0.01 0.01 0.01 0.03 0.04 0.19 0.26 0.29 0.20 0.14 0.16 0.11 0.14 0.27 0.38 0.47 0.49 0.56 0.54 0.51 0.63 0.58 0.50 0.47 0.53 0.78 0.64 0.57 0.47 0.33 0.27 0.28 0.31 0.43 0.46 0.43 0.37 0.32 0.28 0.27 0.28 0.29
0.06 0.11 0.16 0.13 0.09 0.10 0.12 0.28 0.41 0.28 0.17 0.14 0.04 0.03 0.06 0.14 0.23 0.34 0.28 0.38 0.60 0.45 0.42 0.39 0.29 0.30 0.30 0.43 0.47 0.44 0.43 0.37 0.33 0.24 0.23 0.24 0.40 0.40 0.34 0.28 0.23 0.18 0.15 0.14
0.08 0.14 0.25 0.31 0.30 0.29 0.25 0.30 0.46 0.37 0.37 0.18 0.04 0.00 0.01 0.03 0.06 0.12 0.16 0.27 0.45 0.29 0.22 0.22 0.21 0.20 0.23 0.24 0.21 0.23 0.27 0.28 0.26 0.20 0.18 0.17 0.21 0.30 0.30 0.20 0.16 0.15 0.11 0.08
0.04 0.06 0.10 0.19 0.32 0.42 0.29 0.27 0.53 0.74 0.59 0.35 0.03 0.00 0.00 0.00 0.00 0.00 0.04 0.08 0.05 0.03 0.02 0.03 0.07 0.09 0.10 0.10 0.13 0.15 0.15 0.15 0.16 0.10 0.09 0.10 0.11 0.13 0.15 0.15 0.10 0.07 0.06 0.04
0.01 0.03 0.03 0.07 0.15 0.19 0.20 0.32 0.47 0.60 0.60 0.34 0.05 0.02 0.01 0.01 0.01 0.01 0.01 0.02 0.01 0.01 0.00 0.00 0.00 0.01 0.01 0.03 0.04 0.07 0.07 0.06 0.06 0.06 0.06 0.05 0.05 0.05 0.04 0.05 0.05 0.03 0.02 0.01
0.00 0.00 0.00 0.02 0.02 0.05 0.11 0.19 0.28 0.40 0.30 0.12 0.05 0.02 0.01 0.00 0.00 0.01 0.00 0.00 0.01 0.00 0.00 0.01 0.01 0.02 0.01 0.00 0.01 0.02 0.02 0.02 0.02 0.02 0.03 0.03 0.03 0.02 0.02 0.01 0.01 0.01 0.01 0.01
0.01 0.00 0.00 0.00 0.00 0.01 0.03 0.06 0.09 0.12 0.09 0.03 0.01 0.00 0.01 0.00 0.01 0.00 0.00 0.01 0.01 0.02 0.01 0.01 0.01 0.01 0.01 0.01 0.01 0.01 0.01 0.02 0.03 0.03 0.02 0.01 0.01 0.01 0.01 0.01 0.01 0.01 0.01 0.01
0.03 0.01 0.00 0.00 0.00 0.00 0.00 0.00 0.02 0.05 0.05 0.04 0.04 0.03 0.01 0.01 0.02 0.02 0.02 0.02 0.03 0.03 0.02 0.02 0.02 0.04 0.02 0.02 0.02 0.02 0.01 0.02 0.02 0.02 0.02 0.02 0.01 0.01 0.01 0.01 0.01 0.01 0.01 0.01

GFSNGP_prec_precacc24_240.txt.gz
Total_Precipitation_Accumulation
0.01 0.00 0.00 0.02 0.00 0.00 0.08 0.16 0.20 0.09 0.06 0.01 0.01 0.03 0.01 0.00 0.00 0.00 0.00 0.00 0.00 0.00 0.00 0.00 0.00 0.00 0.00 0.00 0.00 0.00 0.00 0.01 0.03 0.08 0.11 0.10 0.07 0.04 0.03 0.04 0.03 0.04 0.06 0.06
0.05 0.00 0.00 0.02 0.01 0.00 0.00 0.00 0.01 0.00 0.01 0.01 0.00 0.00 0.00 0.00 0.00 0.00 0.00 0.00 0.00 0.00 0.00 0.00 0.00 0.00 0.00 0.00 0.00 0.00 0.00 0.01 0.04 0.08 0.09 0.05 0.06 0.09 0.05 0.04 0.03 0.02 0.03 0.03
0.11 0.00 0.03 0.09 0.00 0.00 0.00 0.00 0.01 0.01 0.00 0.00 0.00 0.00 0.00 0.00 0.00 0.00 0.00 0.00 0.00 0.00 0.00 0.00 0.00 0.00 0.00 0.00 0.00 0.00 0.00 0.00 0.03 0.06 0.12 0.19 0.17 0.09 0.06 0.05 0.03 0.03 0.03 0.05
0.10 0.05 0.15 0.02 0.00 0.00 0.00 0.00 0.00 0.00 0.00 0.00 0.00 0.00 0.00 0.00 0.00 0.00 0.00 0.00 0.00 0.00 0.00 0.00 0.00 0.00 0.00 0.00 0.00 0.00 0.00 0.00 0.01 0.05 0.13 0.15 0.10 0.08 0.07 0.08 0.12 0.14 0.13 0.15
0.13 0.07 0.03 0.00 0.00 0.00 0.00 0.00 0.00 0.00 0.00 0.00 0.00 0.00 0.00 0.00 0.00 0.00 0.00 0.00 0.00 0.00 0.00 0.00 0.00 0.00 0.00 0.00 0.00 0.00 0.00 0.00 0.01 0.03 0.04 0.04 0.10 0.16 0.20 0.22 0.18 0.16 0.16 0.16
0.21 0.21 0.07 0.01 0.00 0.00 0.00 0.02 0.01 0.00 0.00 0.00 0.00 0.00 0.00 0.00 0.00 0.00 0.00 0.00 0.00 0.00 0.00 0.00 0.00 0.00 0.00 0.00 0.00 0.00 0.00 0.00 0.01 0.02 0.03 0.04 0.09 0.16 0.18 0.21 0.21 0.22 0.21 0.18
0.16 0.23 0.06 0.00 0.00 0.00 0.02 0.03 0.00 0.00 0.00 0.00 0.00 0.00 0.00 0.00 0.00 0.00 0.00 0.00 0.00 0.00 0.00 0.00 0.00 0.00 0.00 0.00 0.00 0.00 0.00 0.00 0.01 0.02 0.02 0.04 0.06 0.06 0.14 0.22 0.25 0.23 0.21 0.19
0.19 0.29 0.14 0.00 0.00 0.01 0.01 0.00 0.00 0.00 0.01 0.01 0.01 0.00 0.00 0.00 0.00 0.00 0.00 0.00 0.00 0.00 0.00 0.00 0.00 0.00 0.00 0.00 0.00 0.00 0.00 0.01 0.01 0.01 0.03 0.04 0.08 0.09 0.08 0.11 0.16 0.18 0.19 0.20
0.09 0.07 0.01 0.00 0.00 0.00 0.01 0.00 0.00 0.00 0.02 0.01 0.04 0.06 0.05 0.02 0.00 0.00 0.00 0.00 0.00 0.00 0.00 0.00 0.00 0.00 0.00 0.00 0.00 0.01 0.02 0.04 0.06 0.07 0.07 0.08 0.11 0.13 0.14 0.15 0.15 0.15 0.16 0.17
0.14 0.04 0.01 0.00 0.00 0.00 0.01 0.01 0.01 0.01 0.02 0.03 0.03 0.03 0.03 0.03 0.02 0.01 0.01 0.00 0.01 0.01 0.00 0.00 0.00 0.00 0.00 0.00 0.00 0.01 0.03 0.06 0.09 0.11 0.14 0.16 0.17 0.18 0.18 0.16 0.17 0.14 0.14 0.17
0.12 0.02 0.01 0.01 0.02 0.02 0.02 0.01 0.01 0.01 0.01 0.02 0.03 0.03 0.02 0.02 0.02 0.03 0.02 0.01 0.02 0.07 0.09 0.06 0.06 0.04 0.04 0.04 0.05 0.07 0.12 0.16 0.18 0.19 0.20 0.21 0.20 0.20 0.20 0.20 0.22 0.19 0.16 0.13
0.10 0.02 0.10 0.19 0.17 0.07 0.08 0.12 0.11 0.03 0.02 0.02 0.02 0.03 0.02 0.01 0.01 0.01 0.02 0.01 0.01 0.03 0.14 0.21 0.22 0.20 0.20 0.21 0.23 0.28 0.37 0.43 0.47 0.45 0.41 0.38 0.35 0.37 0.39 0.37 0.40 0.35 0.34 0.26
0.07 0.06 0.06 0.07 0.13 0.18 0.21 0.18 0.16 0.19 0.11 0.03 0.03 0.03 0.05 0.07 0.06 0.06 0.06 0.04 0.02 0.04 0.10 0.20 0.33 0.41 0.38 0.34 0.32 0.31 0.38 0.46 0.49 0.48 0.43 0.40 0.37 0.33 0.34 0.40 0.36 0.30 0.28 0.35
0.01 0.02 0.03 0.03 0.05 0.05 0.06 0.15 0.20 0.23 0.32 0.31 0.20 0.16 0.15 0.20 0.22 0.19 0.13 0.05 0.03 0.06 0.13 0.22 0.29 0.38 0.36 0.31 0.25 0.25 0.28 0.35 0.29 0.24 0.21 0.19 0.18 0.17 0.15 0.17 0.21 0.24 0.22 0.16
0.02 0.05 0.05 0.03 0.07 0.06 0.03 0.03 0.03 0.08 0.25 0.44 0.57 0.58 0.35 0.28 0.20 0.14 0.07 0.05 0.04 0.08 0.14 0.17 0.24 0.30 0.32 0.30 0.29 0.27 0.24 0.22 0.19 0.14 0.13 0.16 0.12 0.12 0.12 0.12 0.14 0.16 0.20 0.23
0.01 0.03 0.02 0.03 0.09 0.21 0.19 0.07 0.04 0.14 0.30 0.37 0.36 0.44 0.47 0.38 0.29 0.25 0.24 0.17 0.11 0.11 0.17 0.21 0.24 0.26 0.28 0.29 0.31 0.30 0.30 0.38 0.25 0.12 0.17 0.16 0.11 0.11 0.14 0.18 0.21 0.20 0.16 0.16
0.01 0.01 0.02 0.02 0.04 0.05 0.09 0.02 0.02 0.07 0.13 0.24 0.39 0.40 0.34 0.45 0.59 0.55 0.45 0.39 0.32 0.23 0.20 0.26 0.28 0.30 0.34 0.38 0.30 0.22 0.26 0.36 0.47 0.37 0.25 0.20 0.18 0.17 0.17 0.18 0.19 0.21 0.21 0.18
0.00 0.00 0.00 0.01 0.03 0.05 0.03 0.04 0.05 0.13 0.31 0.33 0.26 0.46 0.50 0.44 0.52 0.67 0.67 0.57 0.61 0.72 0.68 0.67 0.71 0.68 0.65 0.71 0.59 0.38 0.27 0.30 0.37 0.51 0.61 0.44 0.35 0.28 0.26 0.26 0.28 0.29 0.37 0.47
0.00 0.00 0.00 0.00 0.01 0.02 0.02 0.06 0.18 0.27 0.39 0.19 0.25 0.32 0.34 0.40 0.45 0.58 0.71 0.65 0.66 0.72 1.02 0.85 0.80 0.74 0.77 0.98 0.78 0.65 0.41 0.31 0.31 0.35 0.48 0.65 0.61 0.47 0.41 0.37 0.37 0.40 0.40 0.42
0.00 0.00 0.00 0.01 0.01 0.03 0.04 0.18 0.28 0.32 0.24 0.17 0.17 0.11 0.14 0.27 0.40 0.50 0.52 0.60 0.59 0.57 0.67 0.59 0.51 0.47 0.55 0.83 0.71 0.63 0.56 0.41 0.33 0.35 0.39 0.52 0.53 0.48 0.44 0.41 0.39 0.39 0.41 0.40
0.03 0.05 0.08 0.07 0.05 0.08 0.10 0.28 0.44 0.32 0.21 0.15 0.04 0.03 0.06 0.15 0.24 0.35 0.28 0.39 0.61 0.46 0.43 0.40 0.30 0.31 0.32 0.46 0.53 0.48 0.48 0.42 0.37 0.30 0.30 0.31 0.48 0.49 0.45 0.43 0.40 0.34 0.32 0.32
0.04 0.07 0.14 0.20 0.21 0.22 0.23 0.30 0.48 0.42 0.41 0.20 0.04 0.00 0.01 0.03 0.06 0.12 0.16 0.27 0.45 0.29 0.23 0.22 0.22 0.23 0.27 0.29 0.28 0.33 0.37 0.36 0.34 0.27 0.27 0.25 0.30 0.41 0.46 0.37 0.32 0.33 0.26 0.22
0.03 0.05 0.09 0.17 0.30 0.41 0.28 0.27 0.55 0.80 0.64 0.39 0.04 0.00 0.01 0.00 0.00 0.00 0.03 0.08 0.05 0.03 0.02 0.03 0.07 0.11 0.14 0.14 0.17 0.20 0.25 0.27 0.30 0.24 0.23 0.22 0.24 0.28 0.37 0.38 0.27 0.24 0.26 0.16
0.01 0.03 0.03 0.07 0.15 0.19 0.20 0.32 0.47 0.64 0.66 0.39 0.08 0.03 0.02 0.01 0.01 0.01 0.01 0.02 0.01 0.01 0.00 0.00 0.00 0.01 0.02 0.04 0.09 0.13 0.14 0.14 0.15 0.15 0.15 0.15 0.16 0.18 0.23 0.28 0.24 0.17 0.13 0.10
0.00 0.00 0.00 0.02 0.02 0.05 0.11 0.19 0.28 0.40 0.31 0.13 0.05 0.02 0.01 0.00 0.01 0.01 0.00 0.00 0.01 0.01 0.00 0.01 0.01 0.02 0.01 0.01 0.02 0.04 0.07 0.08 0.07 0.07 0.09 0.10 0.11 0.12 0.14 0.15 0.13 0.12 0.09 0.06
0.01 0.00 0.00 0.00 0.00 0.01 0.02 0.06 0.09 0.12 0.09 0.03 0.01 0.01 0.01 0.00 0.01 0.01 0.00 0.01 0.01 0.02 0.01 0.01 0.01 0.02 0.01 0.01 0.01 0.01 0.02 0.04 0.05 0.05 0.05 0.06 0.06 0.06 0.05 0.05 0.05 0.04 0.03 0.02
0.03 0.01 0.00 0.00 0.00 0.00 0.00 0.00 0.02 0.04 0.05 0.04 0.04 0.03 0.01 0.01 0.01 0.01 0.02 0.02 0.03 0.03 0.02 0.02 0.03 0.04 0.03 0.02 0.02 0.02 0.02 0.02 0.02 0.02 0.02 0.02 0.02 0.02 0.01 0.01 0.01 0.01 0.01 0.01

GFSNGP_prec_precacc24_243.txt.gz
Total_Precipitation_Accumulation
0.00 0.00 0.00 0.00 0.00 0.00 0.08 0.10 0.16 0.02 0.00 0.01 0.01 0.03 0.01 0.00 0.00 0.00 0.00 0.00 0.00 0.00 0.00 0.00 0.00 0.00 0.00 0.00 0.00 0.00 0.00 0.01 0.03 0.08 0.11 0.10 0.07 0.04 0.05 0.05 0.05 0.05 0.07 0.08
0.02 0.00 0.00 0.01 0.00 0.00 0.00 0.00 0.01 0.00 0.00 0.00 0.00 0.00 0.00 0.00 0.00 0.00 0.00 0.00 0.00 0.00 0.00 0.00 0.00 0.00 0.00 0.00 0.00 0.00 0.00 0.01 0.04 0.08 0.09 0.05 0.06 0.09 0.05 0.04 0.04 0.02 0.03 0.03
0.09 0.00 0.02 0.06 0.00 0.00 0.00 0.00 0.01 0.01 0.00 0.00 0.00 0.00 0.00 0.00 0.00 0.00 0.00 0.00 0.00 0.00 0.00 0.00 0.00 0.00 0.00 0.00 0.00 0.00 0.00 0.00 0.03 0.06 0.12 0.19 0.17 0.09 0.06 0.05 0.03 0.03 0.03 0.05
0.09 0.05 0.13 0.01 0.00 0.00 0.00 0.00 0.00 0.00 0.00 0.00 0.00 0.00 0.00 0.00 0.00 0.00 0.00 0.00 0.00 0.00 0.00 0.00 0.00 0.00 0.00 0.00 0.00 0.00 0.00 0.00 0.01 0.05 0.13 0.16 0.10 0.08 0.08 0.08 0.12 0.14 0.13 0.16
0.13 0.07 0.03 0.00 0.00 0.00 0.00 0.00 0.00 0.00 0.00 0.00 0.00 0.00 0.00 0.00 0.00 0.00 0.00 0.00 0.00 0.00 0.00 0.00 0.00 0.00 0.00 0.00 0.00 0.00 0.00 0.00 0.01 0.03 0.04 0.04 0.10 0.17 0.20 0.22 0.18 0.16 0.16 0.16
0.20 0.22 0.08 0.01 0.01 0.00 0.00 0.01 0.00 0.00 0.00 0.00 0.00 0.00 0.00 0.00 0.00 0.00 0.00 0.00 0.00 0.00 0.00 0.00 0.00 0.00 0.00 0.00 0.00 0.00 0.00 0.00 0.01 0.02 0.03 0.04 0.09 0.16 0.18 0.20 0.21 0.22 0.21 0.18
0.11 0.18 0.04 0.00 0.00 0.00 0.03 0.02 0.00 0.00 0.00 0.00 0.00 0.00 0.00 0.00 0.00 0.00 0.00 0.00 0.00 0.00 0.00 0.00 0.00 0.00 0.00 0.00 0.00 0.00 0.00 0.00 0.01 0.02 0.02 0.04 0.05 0.06 0.13 0.21 0.24 0.23 0.21 0.19
0.16 0.23 0.10 0.00 0.01 0.01 0.01 0.00 0.00 0.00 0.00 0.00 0.00 0.00 0.00 0.00 0.00 0.00 0.00 0.00 0.00 0.00 0.00 0.00 0.00 0.00 0.00 0.00 0.00 0.00 0.00 0.00 0.01 0.01 0.02 0.03 0.07 0.07 0.06 0.09 0.15 0.18 0.19 0.20
0.05 0.05 0.00 0.00 0.00 0.00 0.00 0.00 0.00 0.00 0.00 0.00 0.00 0.00 0.00 0.00 0.00 0.00 0.00 0.00 0.00 0.00 0.00 0.00 0.00 0.00 0.00 0.00 0.00 0.00 0.00 0.01 0.03 0.05 0.05 0.05 0.08 0.10 0.11 0.13 0.14 0.14 0.16 0.17
0.08 0.02 0.00 0.00 0.00 0.00 0.00 0.00 0.00 0.01 0.01 0.01 0.00 0.00 0.00 0.01 0.02 0.01 0.01 0.00 0.00 0.00 0.00 0.00 0.00 0.00 0.00 0.00 0.00 0.00 0.01 0.02 0.03 0.04 0.05 0.08 0.11 0.15 0.16 0.16 0.17 0.14 0.14 0.17
0.06 0.01 0.00 0.00 0.00 0.01 0.01 0.01 0.00 0.01 0.01 0.01 0.01 0.00 0.00 0.00 0.00 0.02 0.02 0.01 0.01 0.03 0.03 0.02 0.01 0.01 0.02 0.02 0.01 0.01 0.01 0.02 0.03 0.06 0.11 0.15 0.17 0.18 0.19 0.19 0.22 0.19 0.16 0.13
0.09 0.00 0.02 0.00 0.01 0.03 0.04 0.02 0.07 0.03 0.02 0.02 0.02 0.03 0.02 0.01 0.00 0.00 0.01 0.01 0.01 0.01 0.04 0.05 0.05 0.03 0.05 0.05 0.06 0.07 0.14 0.24 0.35 0.38 0.37 0.35 0.32 0.35 0.39 0.37 0.40 0.35 0.34 0.26
0.00 0.00 0.01 0.01 0.01 0.01 0.02 0.03 0.09 0.17 0.10 0.03 0.02 0.02 0.05 0.07 0.06 0.05 0.05 0.04 0.02 0.03 0.02 0.02 0.04 0.06 0.07 0.08 0.09 0.14 0.26 0.39 0.45 0.46 0.40 0.37 0.35 0.32 0.34 0.40 0.36 0.30 0.28 0.36
0.00 0.03 0.04 0.04 0.03 0.01 0.00 0.06 0.15 0.20 0.31 0.25 0.14 0.13 0.15 0.19 0.22 0.19 0.13 0.06 0.03 0.04 0.03 0.03 0.06 0.12 0.16 0.15 0.14 0.18 0.24 0.33 0.27 0.22 0.19 0.18 0.17 0.17 0.15 0.17 0.21 0.24 0.22 0.16
0.01 0.03 0.05 0.02 0.00 0.00 0.02 0.02 0.02 0.07 0.17 0.31 0.42 0.45 0.31 0.26 0.20 0.14 0.07 0.05 0.04 0.04 0.03 0.05 0.10 0.16 0.20 0.21 0.24 0.25 0.23 0.21 0.18 0.14 0.13 0.16 0.12 0.12 0.12 0.12 0.14 0.16 0.20 0.24
0.00 0.00 0.00 0.00 0.00 0.01 0.10 0.06 0.04 0.13 0.27 0.27 0.20 0.23 0.26 0.22 0.23 0.23 0.21 0.16 0.11 0.10 0.11 0.12 0.14 0.18 0.24 0.28 0.31 0.30 0.30 0.41 0.27 0.13 0.18 0.18 0.13 0.12 0.14 0.18 0.20 0.20 0.16 0.16
0.00 0.00 0.00 0.00 0.00 0.02 0.07 0.02 0.02 0.07 0.13 0.24 0.35 0.30 0.23 0.34 0.52 0.51 0.42 0.38 0.33 0.25 0.20 0.25 0.27 0.29 0.34 0.39 0.32 0.24 0.28 0.39 0.51 0.39 0.26 0.21 0.20 0.21 0.21 0.20 0.19 0.20 0.21 0.19
0.00 0.00 0.00 0.01 0.01 0.04 0.03 0.04 0.05 0.13 0.32 0.35 0.28 0.47 0.49 0.43 0.51 0.66 0.67 0.58 0.62 0.73 0.69 0.69 0.72 0.68 0.66 0.71 0.61 0.43 0.35 0.37 0.42 0.54 0.66 0.52 0.42 0.34 0.32 0.31 0.31 0.31 0.40 0.53
0.00 0.00 0.00 0.00 0.01 0.02 0.02 0.06 0.18 0.27 0.42 0.23 0.28 0.33 0.34 0.40 0.45 0.58 0.72 0.66 0.66 0.73 1.03 0.86 0.82 0.75 0.78 0.99 0.79 0.70 0.50 0.41 0.40 0.41 0.52 0.73 0.72 0.57 0.49 0.43 0.43 0.44 0.43 0.49
0.00 0.00 0.00 0.01 0.01 0.03 0.04 0.18 0.28 0.33 0.28 0.20 0.15 0.11 0.14 0.27 0.40 0.50 0.52 0.60 0.60 0.59 0.68 0.60 0.52 0.47 0.55 0.84 0.72 0.66 0.60 0.47 0.39 0.39 0.44 0.62 0.66 0.61 0.55 0.51 0.46 0.45 0.48 0.49
0.01 0.02 0.03 0.03 0.03 0.07 0.10 0.28 0.44 0.32 0.24 0.18 0.05 0.03 0.06 0.15 0.24 0.35 0.28 0.39 0.61 0.46 0.43 0.41 0.30 0.32 0.32 0.47 0.55 0.50 0.51 0.45 0.41 0.33 0.33 0.35 0.59 0.62 0.57 0.53 0.48 0.42 0.42 0.43
0.01 0.03 0.05 0.08 0.13 0.18 0.22 0.30 0.48 0.43 0.43 0.24 0.06 0.01 0.01 0.03 0.06 0.12 0.16 0.27 0.45 0.29 0.23 0.22 0.22 0.24 0.28 0.31 0.29 0.34 0.38 0.38 0.37 0.30 0.34 0.30 0.33 0.46 0.51 0.44 0.39 0.42 0.34 0.34
0.02 0.04 0.06 0.12 0.25 0.36 0.25 0.26 0.55 0.81 0.66 0.43 0.08 0.02 0.01 0.00 0.01 0.01 0.03 0.08 0.05 0.03 0.02 0.03 0.08 0.11 0.15 0.15 0.18 0.23 0.29 0.30 0.32 0.27 0.27 0.26 0.28 0.33 0.44 0.46 0.34 0.31 0.35 0.31
0.01 0.03 0.03 0.07 0.14 0.19 0.20 0.32 0.47 0.64 0.67 0.41 0.11 0.05 0.03 0.01 0.01 0.01 0.01 0.02 0.01 0.01 0.01 0.01 0.01 0.02 0.02 0.05 0.10 0.15 0.17 0.19 0.21 0.22 0.22 0.21 0.24 0.26 0.30 0.38 0.36 0.27 0.26 0.25
0.00 0.00 0.00 0.02 0.02 0.05 0.11 0.19 0.28 0.40 0.31 0.13 0.05 0.02 0.01 0.00 0.01 0.01 0.00 0.00 0.01 0.01 0.00 0.01 0.01 0.02 0.01 0.01 0.03 0.06 0.10 0.11 0.12 0.12 0.14 0.15 0.19 0.21 0.24 0.27 0.27 0.25 0.22 0.18
0.01 0.00 0.00 0.00 0.00 0.01 0.02 0.06 0.09 0.12 0.09 0.03 0.01 0.01 0.01 0.00 0.01 0.01 0.00 0.01 0.00 0.02 0.01 0.01 0.01 0.01 0.01 0.01 0.02 0.02 0.04 0.06 0.08 0.09 0.09 0.10 0.11 0.13 0.14 0.16 0.18 0.17 0.14 0.11
0.03 0.01 0.00 0.00 0.00 0.00 0.00 0.00 0.02 0.04 0.05 0.04 0.04 0.03 0.01 0.01 0.01 0.01 0.01 0.01 0.01 0.01 0.02 0.02 0.03 0.04 0.03 0.02 0.02 0.02 0.02 0.03 0.04 0.03 0.04 0.06 0.06 0.07 0.07 0.08 0.08 0.08 0.07 0.05

GFSNGP_prec_precacc24_249.txt.gz
Total_Precipitation_Accumulation
0.00 0.00 0.00 0.00 0.00 0.00 0.02 0.02 0.05 0.01 0.00 0.01 0.02 0.05 0.02 0.01 0.00 0.01 0.02 0.01 0.00 0.00 0.00 0.00 0.00 0.00 0.00 0.00 0.00 0.00 0.00 0.01 0.02 0.06 0.10 0.09 0.07 0.04 0.05 0.06 0.06 0.06 0.10 0.13
0.00 0.00 0.00 0.00 0.00 0.00 0.00 0.00 0.00 0.00 0.00 0.00 0.00 0.00 0.00 0.00 0.00 0.00 0.00 0.00 0.00 0.00 0.00 0.00 0.00 0.00 0.00 0.00 0.00 0.00 0.00 0.00 0.01 0.05 0.07 0.04 0.06 0.09 0.05 0.04 0.04 0.03 0.05 0.05
0.03 0.00 0.00 0.00 0.00 0.00 0.00 0.00 0.00 0.00 0.00 0.00 0.00 0.00 0.00 0.00 0.00 0.00 0.00 0.00 0.00 0.00 0.00 0.00 0.00 0.00 0.00 0.00 0.00 0.00 0.00 0.00 0.01 0.04 0.11 0.19 0.17 0.09 0.06 0.05 0.03 0.03 0.04 0.06
0.07 0.04 0.07 0.00 0.00 0.00 0.00 0.00 0.00 0.00 0.00 0.00 0.00 0.00 0.00 0.00 0.00 0.00 0.00 0.00 0.00 0.00 0.00 0.00 0.00 0.00 0.00 0.00 0.00 0.00 0.00 0.00 0.00 0.03 0.12 0.15 0.10 0.08 0.08 0.08 0.12 0.14 0.13 0.16
0.10 0.06 0.02 0.00 0.01 0.00 0.00 0.00 0.00 0.00 0.00 0.00 0.00 0.00 0.00 0.00 0.00 0.00 0.00 0.00 0.00 0.00 0.00 0.00 0.00 0.00 0.00 0.00 0.00 0.00 0.00 0.00 0.00 0.02 0.03 0.04 0.10 0.17 0.20 0.22 0.19 0.16 0.16 0.16
0.15 0.17 0.06 0.01 0.01 0.00 0.00 0.01 0.00 0.00 0.00 0.00 0.00 0.00 0.00 0.00 0.00 0.00 0.00 0.00 0.00 0.00 0.00 0.00 0.00 0.00 0.00 0.00 0.00 0.00 0.00 0.00 0.00 0.00 0.02 0.04 0.09 0.16 0.18 0.20 0.21 0.22 0.21 0.18
0.09 0.14 0.03 0.00 0.00 0.00 0.03 0.02 0.00 0.00 0.00 0.00 0.00 0.00 0.00 0.00 0.00 0.00 0.00 0.00 0.00 0.00 0.00 0.00 0.00 0.00 0.00 0.00 0.00 0.00 0.00 0.00 0.00 0.00 0.01 0.03 0.05 0.06 0.13 0.21 0.24 0.22 0.21 0.19
0.15 0.20 0.07 0.00 0.01 0.01 0.01 0.00 0.00 0.00 0.00 0.00 0.00 0.00 0.00 0.00 0.00 0.00 0.00 0.00 0.00 0.00 0.00 0.00 0.00 0.00 0.00 0.00 0.00 0.00 0.00 0.00 0.00 0.00 0.01 0.03 0.07 0.07 0.06 0.09 0.14 0.17 0.18 0.18
0.05 0.04 0.00 0.00 0.00 0.00 0.00 0.00 0.00 0.00 0.00 0.00 0.00 0.00 0.00 0.00 0.00 0.00 0.00 0.00 0.00 0.00 0.00 0.00 0.00 0.00 0.00 0.00 0.00 0.00 0.00 0.00 0.00 0.01 0.02 0.04 0.07 0.08 0.08 0.09 0.10 0.10 0.10 0.13
0.05 0.02 0.00 0.00 0.00 0.00 0.00 0.00 0.00 0.01 0.01 0.00 0.00 0.00 0.00 0.00 0.00 0.00 0.00 0.00 0.00 0.00 0.00 0.00 0.00 0.00 0.00 0.00 0.00 0.00 0.00 0.00 0.00 0.01 0.02 0.04 0.05 0.07 0.08 0.08 0.10 0.08 0.08 0.12
0.05 0.01 0.00 0.00 0.00 0.00 0.01 0.02 0.02 0.02 0.00 0.00 0.00 0.00 0.00 0.00 0.00 0.00 0.00 0.00 0.00 0.00 0.00 0.01 0.01 0.00 0.00 0.00 0.00 0.00 0.00 0.00 0.00 0.01 0.01 0.01 0.01 0.03 0.04 0.05 0.10 0.08 0.10 0.11
0.07 0.00 0.02 0.00 0.00 0.01 0.02 0.01 0.01 0.01 0.00 0.00 0.00 0.00 0.00 0.01 0.00 0.00 0.00 0.00 0.00 0.00 0.01 0.01 0.02 0.01 0.00 0.00 0.01 0.01 0.00 0.00 0.02 0.01 0.01 0.01 0.01 0.05 0.13 0.18 0.27 0.29 0.33 0.26
0.00 0.00 0.01 0.01 0.01 0.00 0.00 0.00 0.00 0.00 0.00 0.00 0.00 0.00 0.02 0.07 0.06 0.06 0.05 0.03 0.01 0.01 0.01 0.01 0.03 0.03 0.02 0.01 0.01 0.00 0.01 0.01 0.02 0.03 0.01 0.01 0.01 0.02 0.08 0.21 0.29 0.29 0.28 0.37
0.00 0.03 0.04 0.03 0.03 0.00 0.00 0.00 0.00 0.00 0.00 0.00 0.02 0.09 0.14 0.19 0.22 0.20 0.13 0.06 0.03 0.03 0.03 0.02 0.04 0.06 0.06 0.05 0.04 0.03 0.03 0.08 0.03 0.01 0.01 0.02 0.03 0.06 0.08 0.13 0.18 0.24 0.23 0.18
0.01 0.02 0.04 0.01 0.00 0.00 0.00 0.00 0.00 0.00 0.00 0.01 0.06 0.22 0.28 0.26 0.19 0.13 0.07 0.04 0.04 0.03 0.02 0.04 0.07 0.08 0.08 0.09 0.09 0.08 0.05 0.04 0.03 0.03 0.05 0.12 0.09 0.10 0.11 0.12 0.14 0.16 0.20 0.25
0.00 0.00 0.00 0.00 0.00 0.00 0.00 0.00 0.00 0.01 0.01 0.04 0.09 0.14 0.20 0.15 0.13 0.13 0.12 0.11 0.09 0.08 0.06 0.05 0.05 0.05 0.09 0.16 0.18 0.18 0.20 0.37 0.24 0.10 0.17 0.17 0.12 0.11 0.14 0.18 0.21 0.20 0.16 0.16
0.00 0.00 0.00 0.00 0.00 0.00 0.00 0.00 0.02 0.02 0.06 0.11 0.14 0.11 0.05 0.06 0.11 0.14 0.15 0.14 0.12 0.11 0.08 0.09 0.11 0.16 0.23 0.30 0.26 0.21 0.27 0.39 0.54 0.42 0.28 0.23 0.22 0.23 0.22 0.21 0.19 0.20 0.21 0.20
0.00 0.00 0.00 0.01 0.01 0.01 0.00 0.01 0.03 0.11 0.25 0.20 0.11 0.15 0.16 0.14 0.19 0.28 0.29 0.22 0.19 0.24 0.31 0.44 0.52 0.54 0.57 0.64 0.57 0.42 0.35 0.38 0.44 0.62 0.77 0.61 0.50 0.42 0.42 0.40 0.38 0.35 0.42 0.60
0.00 0.00 0.00 0.00 0.01 0.02 0.02 0.04 0.16 0.21 0.26 0.13 0.16 0.16 0.14 0.18 0.26 0.33 0.38 0.29 0.29 0.37 0.68 0.64 0.69 0.68 0.73 0.97 0.79 0.70 0.51 0.43 0.41 0.46 0.63 0.87 0.85 0.67 0.62 0.57 0.54 0.53 0.52 0.59
0.00 0.00 0.00 0.01 0.01 0.03 0.04 0.18 0.28 0.28 0.20 0.11 0.10 0.07 0.09 0.18 0.30 0.37 0.33 0.36 0.37 0.40 0.52 0.50 0.48 0.47 0.55 0.84 0.74 0.67 0.61 0.49 0.41 0.42 0.49 0.67 0.72 0.67 0.61 0.59 0.56 0.57 0.65 0.66
0.00 0.00 0.00 0.01 0.01 0.03 0.09 0.27 0.43 0.32 0.18 0.07 0.04 0.03 0.07 0.15 0.24 0.34 0.26 0.33 0.55 0.40 0.39 0.40 0.31 0.32 0.33 0.49 0.57 0.51 0.52 0.47 0.42 0.35 0.35 0.37 0.61 0.67 0.64 0.62 0.61 0.57 0.57 0.56
0.00 0.00 0.00 0.02 0.04 0.07 0.15 0.27 0.47 0.40 0.23 0.08 0.03 0.02 0.02 0.04 0.07 0.12 0.16 0.28 0.45 0.29 0.23 0.22 0.23 0.25 0.29 0.32 0.30 0.35 0.39 0.39 0.39 0.32 0.36 0.32 0.36 0.50 0.59 0.52 0.49 0.52 0.45 0.47
0.00 0.00 0.01 0.04 0.12 0.21 0.16 0.19 0.45 0.66 0.47 0.25 0.07 0.02 0.02 0.01 0.02 0.03 0.05 0.08 0.05 0.02 0.02 0.04 0.08 0.12 0.16 0.16 0.19 0.24 0.30 0.31 0.34 0.30 0.30 0.29 0.32 0.37 0.49 0.52 0.42 0.40 0.47 0.43
0.00 0.01 0.01 0.04 0.12 0.15 0.16 0.27 0.46 0.63 0.66 0.40 0.11 0.05 0.03 0.02 0.01 0.01 0.02 0.03 0.01 0.01 0.01 0.01 0.01 0.02 0.02 0.05 0.11 0.16 0.19 0.21 0.23 0.25 0.26 0.25 0.29 0.30 0.34 0.41 0.39 0.32 0.35 0.33
0.00 0.00 0.00 0.01 0.02 0.05 0.10 0.18 0.28 0.40 0.31 0.13 0.05 0.02 0.01 0.01 0.02 0.02 0.01 0.01 0.01 0.01 0.00 0.01 0.01 0.02 0.01 0.02 0.04 0.08 0.13 0.14 0.14 0.13 0.17 0.21 0.24 0.26 0.30 0.31 0.31 0.31 0.31 0.28
0.01 0.00 0.00 0.00 0.00 0.01 0.02 0.06 0.09 0.12 0.09 0.03 0.01 0.01 0.01 0.01 0.01 0.01 0.01 0.01 0.01 0.02 0.00 0.01 0.02 0.02 0.01 0.02 0.02 0.03 0.05 0.09 0.10 0.11 0.11 0.14 0.16 0.19 0.23 0.26 0.26 0.24 0.24 0.24
0.02 0.01 0.00 0.00 0.00 0.00 0.00 0.01 0.02 0.04 0.04 0.04 0.03 0.03 0.01 0.01 0.02 0.02 0.02 0.01 0.00 0.00 0.00 0.02 0.02 0.03 0.02 0.02 0.02 0.02 0.03 0.05 0.06 0.07 0.07 0.10 0.11 0.13 0.14 0.15 0.17 0.18 0.18 0.18

GFSNGP_prec_precacc24_252.txt.gz
Total_Precipitation_Accumulation
0.00 0.00 0.00 0.00 0.00 0.00 0.01 0.01 0.03 0.00 0.00 0.01 0.02 0.06 0.02 0.01 0.00 0.01 0.03 0.01 0.00 0.00 0.00 0.01 0.01 0.01 0.00 0.00 0.00 0.00 0.00 0.00 0.01 0.01 0.01 0.02 0.03 0.04 0.05 0.06 0.06 0.06 0.10 0.12
0.00 0.00 0.00 0.00 0.00 0.00 0.00 0.00 0.00 0.00 0.00 0.00 0.00 0.00 0.00 0.00 0.00 0.00 0.00 0.00 0.00 0.00 0.00 0.00 0.00 0.01 0.01 0.00 0.00 0.00 0.00 0.00 0.00 0.01 0.02 0.02 0.04 0.07 0.04 0.04 0.04 0.03 0.05 0.05
0.03 0.00 0.00 0.00 0.00 0.00 0.00 0.00 0.00 0.00 0.00 0.00 0.00 0.00 0.00 0.00 0.00 0.00 0.00 0.00 0.00 0.00 0.00 0.00 0.00 0.00 0.00 0.00 0.00 0.00 0.00 0.00 0.00 0.01 0.05 0.11 0.14 0.09 0.06 0.05 0.03 0.03 0.04 0.06
0.06 0.03 0.05 0.00 0.00 0.00 0.00 0.00 0.00 0.00 0.00 0.00 0.00 0.00 0.00 0.00 0.00 0.00 0.00 0.00 0.00 0.00 0.00 0.00 0.00 0.00 0.00 0.00 0.00 0.00 0.00 0.00 0.00 0.00 0.05 0.11 0.09 0.08 0.08 0.08 0.12 0.14 0.13 0.16
0.09 0.06 0.02 0.00 0.01 0.00 0.00 0.00 0.00 0.00 0.00 0.00 0.00 0.00 0.00 0.00 0.00 0.00 0.00 0.00 0.00 0.00 0.00 0.00 0.00 0.00 0.00 0.00 0.00 0.00 0.00 0.00 0.00 0.00 0.00 0.02 0.09 0.16 0.20 0.23 0.19 0.16 0.16 0.16
0.14 0.16 0.06 0.01 0.01 0.00 0.00 0.01 0.00 0.00 0.00 0.00 0.00 0.00 0.00 0.00 0.00 0.00 0.00 0.00 0.00 0.00 0.00 0.00 0.00 0.00 0.00 0.00 0.00 0.00 0.00 0.00 0.00 0.00 0.00 0.00 0.05 0.14 0.17 0.20 0.21 0.22 0.21 0.18
0.07 0.12 0.03 0.00 0.00 0.00 0.03 0.02 0.00 0.00 0.00 0.00 0.00 0.00 0.00 0.00 0.00 0.00 0.00 0.00 0.00 0.00 0.00 0.00 0.00 0.00 0.00 0.00 0.00 0.00 0.00 0.00 0.00 0.00 0.00 0.00 0.02 0.04 0.13 0.21 0.24 0.22 0.21 0.19
0.13 0.16 0.06 0.00 0.01 0.01 0.01 0.00 0.00 0.00 0.00 0.00 0.00 0.00 0.00 0.00 0.00 0.00 0.00 0.00 0.00 0.00 0.00 0.00 0.00 0.00 0.00 0.00 0.00 0.00 0.00 0.00 0.00 0.00 0.00 0.00 0.03 0.05 0.06 0.09 0.14 0.17 0.18 0.18
0.04 0.04 0.00 0.00 0.00 0.00 0.00 0.00 0.00 0.00 0.00 0.00 0.00 0.00 0.00 0.00 0.00 0.00 0.00 0.00 0.00 0.00 0.00 0.00 0.00 0.00 0.00 0.00 0.00 0.00 0.00 0.00 0.00 0.00 0.00 0.00 0.02 0.06 0.08 0.09 0.10 0.10 0.10 0.13
0.03 0.00 0.00 0.00 0.00 0.00 0.00 0.00 0.00 0.01 0.01 0.00 0.00 0.00 0.00 0.00 0.00 0.00 0.00 0.00 0.00 0.00 0.00 0.00 0.00 0.00 0.00 0.00 0.00 0.00 0.00 0.00 0.00 0.00 0.00 0.00 0.02 0.05 0.08 0.08 0.10 0.08 0.07 0.10
0.02 0.00 0.00 0.00 0.00 0.00 0.01 0.02 0.02 0.02 0.00 0.00 0.00 0.00 0.00 0.00 0.00 0.00 0.00 0.00 0.00 0.00 0.00 0.00 0.00 0.00 0.00 0.00 0.00 0.00 0.00 0.00 0.00 0.00 0.00 0.00 0.01 0.03 0.04 0.05 0.10 0.08 0.06 0.05
0.03 0.00 0.02 0.00 0.00 0.01 0.02 0.01 0.01 0.01 0.00 0.00 0.00 0.00 0.00 0.00 0.00 0.00 0.00 0.00 0.00 0.00 0.00 0.00 0.00 0.00 0.00 0.00 0.01 0.01 0.00 0.00 0.02 0.01 0.00 0.01 0.01 0.05 0.11 0.15 0.20 0.21 0.24 0.17
0.00 0.00 0.01 0.01 0.01 0.00 0.00 0.00 0.00 0.00 0.00 0.00 0.00 0.00 0.00 0.00 0.00 0.02 0.03 0.02 0.01 0.01 0.01 0.00 0.00 0.00 0.00 0.00 0.00 0.00 0.00 0.01 0.02 0.03 0.01 0.01 0.01 0.02 0.04 0.09 0.11 0.11 0.15 0.27
0.00 0.03 0.04 0.03 0.03 0.00 0.00 0.00 0.00 0.00 0.00 0.00 0.00 0.00 0.01 0.03 0.10 0.15 0.12 0.05 0.03 0.03 0.03 0.02 0.01 0.01 0.02 0.01 0.01 0.01 0.02 0.08 0.03 0.01 0.01 0.01 0.01 0.02 0.02 0.04 0.06 0.12 0.15 0.16
0.01 0.02 0.04 0.01 0.00 0.00 0.00 0.00 0.00 0.00 0.00 0.00 0.00 0.01 0.03 0.09 0.13 0.10 0.05 0.03 0.02 0.02 0.02 0.04 0.05 0.05 0.05 0.05 0.05 0.04 0.03 0.02 0.03 0.02 0.03 0.08 0.02 0.02 0.04 0.05 0.09 0.14 0.19 0.24
0.00 0.00 0.00 0.00 0.00 0.00 0.00 0.00 0.00 0.01 0.01 0.01 0.02 0.03 0.04 0.04 0.08 0.11 0.11 0.09 0.07 0.06 0.05 0.05 0.04 0.03 0.06 0.11 0.13 0.13 0.17 0.35 0.22 0.08 0.12 0.12 0.07 0.07 0.10 0.15 0.19 0.19 0.16 0.16
0.00 0.00 0.00 0.00 0.00 0.00 0.00 0.00 0.02 0.02 0.04 0.06 0.06 0.04 0.03 0.03 0.07 0.13 0.15 0.14 0.12 0.11 0.08 0.08 0.07 0.08 0.15 0.21 0.23 0.18 0.23 0.37 0.53 0.38 0.24 0.20 0.20 0.21 0.21 0.21 0.20 0.20 0.21 0.21
0.00 0.00 0.00 0.00 0.01 0.01 0.00 0.01 0.02 0.08 0.13 0.08 0.06 0.08 0.06 0.07 0.14 0.22 0.27 0.20 0.17 0.16 0.17 0.28 0.31 0.34 0.43 0.52 0.49 0.39 0.32 0.34 0.40 0.59 0.74 0.60 0.49 0.42 0.43 0.42 0.41 0.39 0.45 0.65
0.00 0.00 0.00 0.00 0.01 0.02 0.02 0.03 0.14 0.13 0.12 0.08 0.09 0.06 0.05 0.09 0.17 0.26 0.34 0.25 0.21 0.17 0.28 0.29 0.36 0.46 0.61 0.87 0.73 0.65 0.47 0.39 0.39 0.45 0.64 0.88 0.86 0.68 0.64 0.60 0.60 0.62 0.63 0.73
0.00 0.00 0.00 0.01 0.01 0.02 0.03 0.15 0.25 0.17 0.12 0.10 0.05 0.04 0.05 0.09 0.19 0.28 0.27 0.25 0.25 0.25 0.27 0.27 0.28 0.31 0.45 0.77 0.70 0.64 0.59 0.47 0.41 0.42 0.50 0.69 0.73 0.68 0.62 0.61 0.59 0.61 0.70 0.74
0.00 0.00 0.00 0.00 0.00 0.02 0.06 0.19 0.37 0.18 0.11 0.06 0.03 0.03 0.06 0.09 0.15 0.23 0.16 0.19 0.35 0.28 0.26 0.27 0.20 0.26 0.29 0.48 0.56 0.51 0.53 0.47 0.43 0.35 0.36 0.39 0.62 0.67 0.64 0.62 0.62 0.59 0.61 0.60
0.00 0.00 0.00 0.00 0.02 0.05 0.12 0.25 0.42 0.26 0.13 0.07 0.03 0.02 0.02 0.03 0.05 0.09 0.13 0.23 0.36 0.24 0.18 0.19 0.21 0.24 0.29 0.32 0.30 0.36 0.39 0.39 0.38 0.32 0.37 0.34 0.37 0.51 0.60 0.54 0.51 0.54 0.48 0.52
0.00 0.00 0.00 0.01 0.06 0.11 0.10 0.16 0.39 0.44 0.28 0.15 0.06 0.03 0.02 0.01 0.02 0.03 0.05 0.07 0.05 0.02 0.01 0.03 0.08 0.12 0.16 0.16 0.19 0.25 0.31 0.31 0.34 0.30 0.31 0.31 0.33 0.40 0.50 0.53 0.43 0.42 0.50 0.47
0.00 0.00 0.00 0.01 0.05 0.07 0.10 0.21 0.39 0.52 0.46 0.27 0.10 0.05 0.03 0.02 0.02 0.01 0.02 0.03 0.02 0.01 0.01 0.01 0.01 0.02 0.03 0.05 0.11 0.17 0.20 0.21 0.23 0.25 0.27 0.26 0.30 0.32 0.35 0.42 0.40 0.34 0.38 0.36
0.00 0.00 0.00 0.00 0.01 0.03 0.08 0.16 0.26 0.38 0.30 0.13 0.05 0.02 0.01 0.01 0.03 0.02 0.01 0.01 0.02 0.01 0.00 0.01 0.02 0.02 0.01 0.02 0.04 0.08 0.14 0.16 0.16 0.14 0.18 0.22 0.25 0.27 0.31 0.33 0.32 0.33 0.33 0.31
0.01 0.00 0.00 0.00 0.00 0.00 0.01 0.05 0.08 0.11 0.08 0.03 0.01 0.01 0.01 0.01 0.01 0.01 0.01 0.02 0.01 0.02 0.00 0.01 0.02 0.02 0.01 0.02 0.03 0.03 0.06 0.10 0.11 0.13 0.12 0.15 0.17 0.20 0.24 0.27 0.28 0.27 0.27 0.27
0.01 0.01 0.00 0.00 0.00 0.00 0.00 0.01 0.02 0.02 0.03 0.03 0.03 0.02 0.01 0.01 0.02 0.02 0.03 0.01 0.00 0.00 0.00 0.01 0.02 0.04 0.02 0.02 0.02 0.03 0.04 0.05 0.08 0.09 0.09 0.11 0.12 0.14 0.16 0.16 0.18 0.20 0.21 0.21

GFSNGP_prec_precacc24_255.txt.gz
Total_Precipitation_Accumulation
0.00 0.00 0.00 0.00 0.00 0.00 0.01 0.00 0.01 0.01 0.00 0.01 0.02 0.06 0.02 0.01 0.00 0.01 0.03 0.01 0.00 0.00 0.01 0.01 0.02 0.01 0.00 0.00 0.00 0.00 0.00 0.00 0.00 0.00 0.00 0.01 0.01 0.01 0.03 0.04 0.06 0.06 0.10 0.12
0.00 0.00 0.00 0.00 0.00 0.00 0.00 0.00 0.00 0.00 0.00 0.00 0.00 0.00 0.00 0.00 0.00 0.00 0.00 0.00 0.00 0.00 0.00 0.00 0.00 0.01 0.01 0.01 0.00 0.00 0.00 0.00 0.00 0.00 0.00 0.00 0.01 0.03 0.02 0.03 0.04 0.03 0.05 0.05
0.02 0.00 0.00 0.00 0.00 0.00 0.00 0.00 0.00 0.00 0.00 0.00 0.00 0.00 0.00 0.00 0.00 0.00 0.00 0.00 0.00 0.00 0.00 0.00 0.00 0.00 0.00 0.00 0.00 0.00 0.00 0.00 0.00 0.00 0.00 0.01 0.02 0.03 0.04 0.05 0.03 0.03 0.04 0.06
0.04 0.02 0.03 0.00 0.00 0.00 0.00 0.00 0.00 0.00 0.00 0.00 0.00 0.00 0.00 0.00 0.00 0.00 0.00 0.00 0.00 0.00 0.00 0.00 0.00 0.00 0.00 0.00 0.00 0.00 0.00 0.00 0.00 0.00 0.00 0.04 0.05 0.07 0.07 0.07 0.10 0.13 0.13 0.16
0.07 0.05 0.02 0.00 0.01 0.00 0.00 0.00 0.00 0.00 0.00 0.00 0.00 0.00 0.00 0.00 0.00 0.00 0.00 0.00 0.00 0.00 0.00 0.00 0.00 0.00 0.00 0.00 0.00 0.00 0.00 0.00 0.00 0.00 0.00 0.01 0.07 0.12 0.15 0.19 0.17 0.15 0.16 0.16
0.12 0.14 0.06 0.01 0.01 0.00 0.00 0.01 0.00 0.00 0.00 0.00 0.00 0.00 0.00 0.00 0.00 0.00 0.00 0.00 0.00 0.00 0.00 0.00 0.00 0.00 0.00 0.00 0.00 0.00 0.00 0.00 0.00 0.00 0.00 0.00 0.02 0.08 0.12 0.15 0.18 0.20 0.20 0.18
0.05 0.09 0.03 0.00 0.00 0.00 0.03 0.02 0.00 0.00 0.00 0.00 0.00 0.00 0.00 0.00 0.00 0.00 0.00 0.00 0.00 0.00 0.00 0.00 0.00 0.00 0.00 0.00 0.00 0.00 0.00 0.00 0.00 0.00 0.00 0.00 0.00 0.01 0.09 0.17 0.21 0.20 0.20 0.19
0.11 0.13 0.06 0.00 0.01 0.01 0.01 0.00 0.00 0.00 0.00 0.00 0.00 0.00 0.00 0.00 0.00 0.00 0.00 0.00 0.00 0.00 0.00 0.00 0.00 0.00 0.00 0.00 0.00 0.00 0.00 0.00 0.00 0.00 0.00 0.00 0.00 0.00 0.01 0.04 0.10 0.15 0.17 0.18
0.04 0.03 0.00 0.00 0.00 0.00 0.00 0.00 0.00 0.00 0.00 0.00 0.00 0.00 0.00 0.00 0.00 0.00 0.00 0.00 0.00 0.00 0.00 0.00 0.00 0.00 0.00 0.00 0.00 0.00 0.00 0.00 0.00 0.00 0.00 0.00 0.00 0.00 0.02 0.05 0.06 0.09 0.10 0.13
0.02 0.00 0.00 0.00 0.00 0.00 0.00 0.00 0.00 0.01 0.01 0.00 0.00 0.00 0.00 0.00 0.00 0.00 0.00 0.00 0.00 0.00 0.00 0.00 0.00 0.00 0.00 0.00 0.00 0.00 0.00 0.00 0.00 0.00 0.00 0.00 0.00 0.00 0.00 0.03 0.07 0.07 0.07 0.10
0.01 0.00 0.00 0.00 0.00 0.00 0.01 0.02 0.02 0.02 0.00 0.00 0.00 0.00 0.00 0.00 0.00 0.00 0.00 0.00 0.00 0.00 0.00 0.00 0.00 0.00 0.00 0.00 0.00 0.00 0.00 0.00 0.00 0.00 0.00 0.00 0.00 0.01 0.01 0.02 0.08 0.06 0.06 0.05
0.02 0.00 0.02 0.00 0.00 0.01 0.02 0.01 0.01 0.01 0.00 0.00 0.00 0.00 0.00 0.00 0.00 0.00 0.00 0.00 0.00 0.00 0.01 0.00 0.00 0.00 0.00 0.00 0.01 0.01 0.00 0.00 0.01 0.00 0.00 0.00 0.00 0.03 0.09 0.12 0.14 0.18 0.23 0.17
0.00 0.00 0.01 0.01 0.01 0.00 0.00 0.00 0.00 0.00 0.00 0.00 0.00 0.00 0.00 0.00 0.00 0.00 0.00 0.01 0.01 0.01 0.00 0.00 0.00 0.00 0.00 0.00 0.00 0.00 0.00 0.01 0.01 0.02 0.00 0.00 0.01 0.02 0.03 0.07 0.10 0.11 0.15 0.26
0.00 0.03 0.04 0.03 0.03 0.00 0.00 0.00 0.00 0.00 0.00 0.00 0.00 0.00 0.01 0.01 0.01 0.02 0.02 0.01 0.01 0.01 0.01 0.01 0.01 0.01 0.00 0.00 0.00 0.00 0.01 0.06 0.03 0.01 0.01 0.01 0.02 0.02 0.02 0.04 0.05 0.07 0.09 0.10
0.01 0.02 0.03 0.01 0.00 0.00 0.00 0.00 0.00 0.00 0.00 0.00 0.00 0.01 0.01 0.02 0.02 0.01 0.01 0.02 0.01 0.01 0.01 0.03 0.04 0.03 0.02 0.02 0.02 0.02 0.01 0.01 0.02 0.01 0.03 0.08 0.03 0.02 0.02 0.03 0.04 0.05 0.08 0.14
0.00 0.00 0.00 0.00 0.00 0.00 0.00 0.00 0.00 0.00 0.01 0.01 0.02 0.02 0.02 0.02 0.01 0.01 0.03 0.08 0.06 0.04 0.02 0.02 0.01 0.01 0.02 0.03 0.07 0.09 0.10 0.27 0.18 0.07 0.11 0.11 0.06 0.06 0.06 0.06 0.09 0.10 0.08 0.12
0.00 0.00 0.00 0.00 0.00 0.00 0.00 0.00 0.01 0.02 0.03 0.03 0.03 0.02 0.02 0.01 0.01 0.02 0.07 0.12 0.10 0.09 0.05 0.06 0.05 0.04 0.05 0.09 0.17 0.16 0.17 0.24 0.33 0.23 0.18 0.16 0.16 0.15 0.15 0.14 0.15 0.15 0.16 0.19
0.00 0.00 0.00 0.00 0.00 0.00 0.00 0.00 0.01 0.04 0.06 0.05 0.05 0.06 0.02 0.02 0.05 0.08 0.12 0.14 0.12 0.14 0.15 0.25 0.28 0.27 0.26 0.31 0.34 0.32 0.29 0.29 0.31 0.42 0.56 0.50 0.42 0.36 0.38 0.39 0.39 0.37 0.43 0.65
0.00 0.00 0.00 0.00 0.00 0.01 0.01 0.02 0.07 0.07 0.09 0.08 0.06 0.03 0.02 0.05 0.10 0.14 0.18 0.17 0.15 0.13 0.22 0.24 0.26 0.30 0.39 0.60 0.50 0.53 0.40 0.36 0.34 0.38 0.57 0.82 0.80 0.62 0.61 0.59 0.58 0.61 0.64 0.77
0.00 0.00 0.00 0.00 0.00 0.00 0.01 0.09 0.14 0.10 0.11 0.07 0.03 0.02 0.02 0.06 0.13 0.18 0.16 0.16 0.18 0.20 0.20 0.15 0.10 0.12 0.27 0.52 0.50 0.53 0.51 0.41 0.37 0.38 0.45 0.65 0.70 0.65 0.60 0.60 0.60 0.62 0.71 0.76
0.00 0.00 0.00 0.00 0.00 0.00 0.02 0.10 0.21 0.11 0.07 0.05 0.03 0.02 0.04 0.07 0.10 0.15 0.10 0.09 0.18 0.14 0.11 0.13 0.10 0.12 0.18 0.36 0.47 0.44 0.49 0.44 0.41 0.35 0.35 0.39 0.62 0.67 0.64 0.62 0.62 0.61 0.62 0.61
0.00 0.00 0.00 0.00 0.00 0.01 0.05 0.13 0.26 0.17 0.08 0.06 0.03 0.02 0.02 0.03 0.02 0.02 0.06 0.13 0.18 0.13 0.09 0.09 0.13 0.19 0.25 0.30 0.28 0.35 0.39 0.39 0.39 0.32 0.37 0.35 0.38 0.52 0.61 0.54 0.52 0.56 0.50 0.53
0.00 0.00 0.00 0.00 0.01 0.02 0.02 0.08 0.25 0.31 0.21 0.12 0.05 0.03 0.03 0.02 0.03 0.03 0.03 0.02 0.02 0.02 0.01 0.02 0.07 0.11 0.15 0.15 0.19 0.25 0.31 0.32 0.34 0.31 0.32 0.32 0.35 0.41 0.52 0.54 0.44 0.44 0.51 0.48
0.00 0.00 0.00 0.00 0.01 0.02 0.02 0.08 0.23 0.34 0.29 0.21 0.09 0.05 0.04 0.02 0.01 0.01 0.02 0.02 0.02 0.02 0.01 0.01 0.01 0.02 0.03 0.05 0.11 0.17 0.20 0.21 0.24 0.25 0.28 0.28 0.31 0.33 0.36 0.44 0.42 0.36 0.40 0.38
0.00 0.00 0.00 0.00 0.00 0.01 0.03 0.07 0.14 0.23 0.20 0.10 0.05 0.02 0.01 0.01 0.03 0.02 0.01 0.01 0.03 0.02 0.01 0.02 0.02 0.02 0.01 0.02 0.04 0.08 0.14 0.17 0.17 0.16 0.19 0.23 0.26 0.28 0.32 0.34 0.34 0.35 0.36 0.33
0.00 0.00 0.00 0.00 0.00 0.00 0.00 0.02 0.05 0.07 0.06 0.02 0.01 0.01 0.01 0.01 0.01 0.02 0.01 0.02 0.02 0.03 0.01 0.01 0.02 0.02 0.02 0.03 0.03 0.03 0.06 0.10 0.12 0.14 0.14 0.16 0.18 0.21 0.25 0.28 0.29 0.28 0.29 0.31
0.00 0.00 0.00 0.00 0.00 0.00 0.00 0.01 0.01 0.01 0.02 0.02 0.02 0.02 0.01 0.01 0.02 0.03 0.03 0.01 0.01 0.01 0.01 0.01 0.02 0.04 0.03 0.03 0.02 0.03 0.03 0.06 0.09 0.11 0.12 0.14 0.14 0.16 0.17 0.17 0.19 0.21 0.23 0.23

GFSNGP_prec_precacc24_258.txt.gz
Total_Precipitation_Accumulation
0.00 0.00 0.00 0.00 0.00 0.00 0.00 0.00 0.01 0.01 0.00 0.01 0.02 0.06 0.02 0.01 0.00 0.01 0.03 0.02 0.00 0.00 0.01 0.01 0.02 0.01 0.00 0.00 0.00 0.00 0.00 0.00 0.00 0.00 0.00 0.01 0.01 0.01 0.02 0.03 0.04 0.03 0.06 0.10
0.00 0.00 0.00 0.00 0.00 0.00 0.00 0.00 0.00 0.00 0.00 0.00 0.00 0.00 0.00 0.00 0.00 0.00 0.00 0.00 0.00 0.00 0.00 0.00 0.00 0.01 0.01 0.01 0.01 0.00 0.00 0.00 0.00 0.00 0.00 0.00 0.00 0.00 0.00 0.00 0.01 0.02 0.04 0.05
0.02 0.00 0.00 0.00 0.00 0.00 0.00 0.00 0.00 0.00 0.00 0.00 0.00 0.00 0.00 0.00 0.00 0.00 0.00 0.00 0.00 0.00 0.00 0.00 0.00 0.00 0.00 0.00 0.00 0.00 0.00 0.00 0.00 0.00 0.00 0.00 0.00 0.00 0.01 0.01 0.01 0.02 0.03 0.04
0.03 0.02 0.02 0.00 0.00 0.00 0.00 0.00 0.00 0.00 0.00 0.00 0.00 0.00 0.00 0.00 0.00 0.00 0.00 0.00 0.00 0.00 0.00 0.00 0.00 0.00 0.00 0.00 0.00 0.00 0.00 0.00 0.00 0.00 0.00 0.01 0.01 0.02 0.03 0.04 0.07 0.09 0.08 0.10
0.05 0.04 0.01 0.00 0.01 0.00 0.00 0.00 0.00 0.00 0.00 0.00 0.00 0.00 0.00 0.00 0.00 0.00 0.00 0.00 0.00 0.00 0.00 0.00 0.00 0.00 0.00 0.00 0.00 0.00 0.00 0.00 0.00 0.00 0.00 0.01 0.02 0.04 0.06 0.08 0.10 0.10 0.11 0.12
0.09 0.12 0.05 0.01 0.01 0.00 0.00 0.01 0.00 0.00 0.00 0.00 0.00 0.00 0.00 0.00 0.00 0.00 0.00 0.00 0.00 0.00 0.00 0.00 0.00 0.00 0.00 0.00 0.00 0.00 0.00 0.00 0.00 0.00 0.00 0.00 0.01 0.02 0.04 0.06 0.09 0.10 0.13 0.13
0.04 0.06 0.02 0.00 0.00 0.00 0.03 0.02 0.00 0.00 0.00 0.00 0.00 0.00 0.00 0.00 0.00 0.00 0.00 0.00 0.00 0.00 0.00 0.00 0.00 0.00 0.00 0.00 0.00 0.00 0.00 0.00 0.00 0.00 0.00 0.00 0.00 0.00 0.02 0.06 0.10 0.12 0.14 0.14
0.09 0.10 0.05 0.00 0.01 0.01 0.01 0.00 0.00 0.00 0.00 0.00 0.00 0.00 0.00 0.00 0.00 0.00 0.00 0.00 0.00 0.00 0.00 0.00 0.00 0.00 0.00 0.00 0.00 0.00 0.00 0.00 0.00 0.00 0.00 0.00 0.00 0.00 0.00 0.01 0.05 0.08 0.13 0.15
0.03 0.03 0.00 0.00 0.00 0.00 0.00 0.00 0.00 0.00 0.00 0.00 0.00 0.00 0.00 0.00 0.00 0.00 0.00 0.00 0.00 0.00 0.00 0.00 0.00 0.00 0.00 0.00 0.00 0.00 0.00 0.00 0.00 0.00 0.00 0.00 0.00 0.00 0.00 0.00 0.03 0.06 0.07 0.10
0.02 0.00 0.00 0.00 0.00 0.00 0.00 0.00 0.00 0.01 0.01 0.00 0.00 0.00 0.00 0.00 0.00 0.00 0.00 0.00 0.00 0.00 0.00 0.00 0.00 0.00 0.00 0.00 0.00 0.00 0.00 0.00 0.00 0.00 0.00 0.00 0.00 0.00 0.00 0.00 0.02 0.03 0.04 0.07
0.01 0.00 0.00 0.00 0.00 0.00 0.01 0.02 0.02 0.02 0.00 0.00 0.00 0.00 0.00 0.00 0.00 0.00 0.00 0.00 0.00 0.00 0.00 0.00 0.00 0.00 0.00 0.00 0.00 0.00 0.00 0.00 0.00 0.00 0.00 0.00 0.00 0.01 0.01 0.00 0.03 0.02 0.03 0.04
0.02 0.00 0.02 0.00 0.00 0.01 0.02 0.01 0.01 0.01 0.00 0.00 0.00 0.00 0.00 0.00 0.00 0.00 0.00 0.00 0.00 0.00 0.01 0.00 0.00 0.00 0.00 0.00 0.01 0.01 0.00 0.00 0.01 0.01 0.00 0.01 0.00 0.01 0.04 0.05 0.07 0.06 0.08 0.07
0.00 0.00 0.01 0.01 0.01 0.00 0.00 0.00 0.00 0.00 0.00 0.00 0.00 0.00 0.00 0.00 0.00 0.01 0.01 0.01 0.01 0.01 0.00 0.00 0.00 0.00 0.00 0.00 0.00 0.01 0.01 0.01 0.01 0.01 0.01 0.01 0.01 0.01 0.01 0.04 0.06 0.06 0.06 0.08
0.00 0.03 0.04 0.03 0.03 0.00 0.00 0.00 0.00 0.00 0.00 0.00 0.00 0.00 0.01 0.00 0.01 0.01 0.01 0.01 0.01 0.00 0.00 0.01 0.00 0.00 0.00 0.00 0.00 0.00 0.01 0.04 0.03 0.01 0.01 0.02 0.01 0.01 0.01 0.02 0.03 0.05 0.06 0.09
0.01 0.02 0.02 0.00 0.00 0.00 0.00 0.00 0.00 0.00 0.00 0.00 0.00 0.01 0.01 0.02 0.02 0.01 0.01 0.01 0.01 0.01 0.00 0.01 0.01 0.01 0.01 0.01 0.02 0.02 0.02 0.01 0.01 0.02 0.03 0.06 0.03 0.02 0.02 0.03 0.04 0.04 0.04 0.08
0.00 0.00 0.00 0.00 0.00 0.00 0.00 0.00 0.00 0.00 0.00 0.01 0.01 0.01 0.02 0.02 0.01 0.01 0.00 0.01 0.03 0.03 0.02 0.02 0.02 0.00 0.01 0.03 0.06 0.07 0.07 0.20 0.13 0.06 0.08 0.09 0.06 0.06 0.06 0.06 0.08 0.08 0.06 0.06
0.00 0.00 0.00 0.00 0.00 0.00 0.00 0.00 0.00 0.01 0.02 0.02 0.02 0.02 0.02 0.00 0.01 0.01 0.01 0.02 0.06 0.07 0.05 0.05 0.04 0.02 0.03 0.04 0.08 0.09 0.11 0.18 0.28 0.16 0.13 0.13 0.13 0.14 0.14 0.13 0.13 0.10 0.09 0.11
0.00 0.00 0.00 0.00 0.00 0.00 0.00 0.00 0.01 0.01 0.04 0.05 0.05 0.05 0.02 0.02 0.03 0.04 0.04 0.05 0.06 0.05 0.05 0.09 0.12 0.11 0.12 0.12 0.15 0.17 0.17 0.18 0.22 0.28 0.34 0.33 0.29 0.26 0.29 0.31 0.31 0.29 0.31 0.54
0.00 0.00 0.00 0.00 0.00 0.00 0.00 0.00 0.01 0.03 0.08 0.08 0.06 0.03 0.02 0.04 0.07 0.10 0.10 0.07 0.06 0.06 0.08 0.11 0.11 0.15 0.18 0.18 0.29 0.30 0.27 0.24 0.24 0.25 0.31 0.47 0.54 0.43 0.44 0.44 0.46 0.51 0.58 0.72
0.00 0.00 0.00 0.00 0.00 0.00 0.00 0.01 0.06 0.08 0.10 0.07 0.03 0.01 0.01 0.03 0.08 0.10 0.08 0.09 0.11 0.13 0.10 0.07 0.05 0.07 0.17 0.27 0.31 0.34 0.35 0.29 0.29 0.30 0.34 0.46 0.48 0.48 0.47 0.50 0.51 0.55 0.67 0.74
0.00 0.00 0.00 0.00 0.00 0.00 0.00 0.03 0.11 0.08 0.07 0.05 0.02 0.01 0.02 0.03 0.05 0.07 0.06 0.04 0.07 0.06 0.04 0.05 0.04 0.05 0.09 0.21 0.31 0.27 0.31 0.29 0.32 0.28 0.29 0.32 0.54 0.60 0.59 0.59 0.60 0.60 0.62 0.61
0.00 0.00 0.00 0.00 0.00 0.00 0.00 0.03 0.13 0.11 0.06 0.06 0.03 0.01 0.01 0.01 0.01 0.01 0.02 0.04 0.04 0.05 0.04 0.03 0.05 0.10 0.12 0.17 0.17 0.23 0.28 0.32 0.33 0.28 0.33 0.32 0.37 0.51 0.59 0.53 0.51 0.56 0.51 0.54
0.00 0.00 0.00 0.00 0.00 0.00 0.00 0.02 0.12 0.18 0.13 0.09 0.05 0.03 0.03 0.02 0.03 0.04 0.03 0.01 0.01 0.02 0.01 0.02 0.06 0.09 0.13 0.13 0.16 0.24 0.30 0.31 0.33 0.29 0.31 0.32 0.35 0.42 0.52 0.55 0.46 0.45 0.53 0.50
0.00 0.00 0.00 0.00 0.00 0.00 0.00 0.01 0.09 0.16 0.16 0.13 0.07 0.04 0.03 0.02 0.01 0.01 0.02 0.02 0.02 0.02 0.01 0.02 0.02 0.02 0.03 0.06 0.12 0.17 0.21 0.22 0.24 0.26 0.28 0.28 0.32 0.34 0.37 0.45 0.43 0.37 0.41 0.40
0.00 0.00 0.00 0.00 0.00 0.00 0.00 0.00 0.03 0.09 0.09 0.05 0.04 0.01 0.01 0.01 0.03 0.01 0.01 0.01 0.03 0.02 0.01 0.02 0.02 0.02 0.01 0.03 0.05 0.09 0.15 0.18 0.18 0.17 0.20 0.24 0.27 0.29 0.33 0.35 0.35 0.37 0.38 0.37
0.00 0.00 0.00 0.00 0.00 0.00 0.00 0.00 0.01 0.02 0.02 0.01 0.01 0.00 0.00 0.00 0.01 0.02 0.02 0.02 0.02 0.03 0.01 0.02 0.02 0.02 0.02 0.03 0.03 0.04 0.07 0.11 0.13 0.15 0.15 0.18 0.20 0.22 0.27 0.30 0.31 0.30 0.31 0.34
0.00 0.00 0.00 0.00 0.00 0.00 0.00 0.01 0.01 0.01 0.00 0.01 0.01 0.01 0.01 0.01 0.02 0.03 0.03 0.02 0.01 0.01 0.01 0.02 0.03 0.04 0.03 0.03 0.03 0.03 0.04 0.06 0.10 0.12 0.13 0.16 0.16 0.18 0.19 0.19 0.21 0.23 0.24 0.25

GFSNGP_prec_precacc24_264.txt.gz
Total_Precipitation_Accumulation
0.00 0.00 0.00 0.00 0.00 0.00 0.00 0.00 0.01 0.01 0.01 0.01 0.01 0.02 0.01 0.01 0.00 0.01 0.03 0.02 0.00 0.00 0.01 0.01 0.02 0.02 0.00 0.00 0.00 0.00 0.00 0.00 0.00 0.00 0.00 0.00 0.00 0.00 0.02 0.02 0.03 0.02 0.05 0.07
0.00 0.00 0.00 0.00 0.00 0.00 0.00 0.00 0.00 0.00 0.00 0.00 0.00 0.00 0.00 0.00 0.00 0.00 0.00 0.00 0.00 0.00 0.00 0.00 0.00 0.01 0.01 0.01 0.01 0.00 0.00 0.00 0.00 0.00 0.00 0.00 0.00 0.00 0.00 0.00 0.01 0.01 0.02 0.03
0.00 0.00 0.00 0.00 0.00 0.00 0.00 0.00 0.00 0.00 0.00 0.00 0.00 0.00 0.00 0.00 0.00 0.00 0.00 0.00 0.00 0.00 0.00 0.00 0.00 0.00 0.00 0.00 0.00 0.00 0.00 0.00 0.00 0.00 0.00 0.00 0.00 0.00 0.00 0.00 0.00 0.00 0.00 0.01
0.00 0.00 0.00 0.00 0.00 0.00 0.00 0.00 0.00 0.00 0.00 0.00 0.00 0.00 0.00 0.00 0.00 0.00 0.00 0.00 0.00 0.00 0.00 0.00 0.00 0.00 0.00 0.00 0.00 0.00 0.00 0.00 0.00 0.01 0.00 0.00 0.00 0.00 0.00 0.00 0.00 0.00 0.00 0.01
0.01 0.00 0.00 0.00 0.00 0.00 0.00 0.00 0.00 0.00 0.00 0.00 0.00 0.00 0.00 0.00 0.00 0.00 0.00 0.00 0.00 0.00 0.00 0.00 0.00 0.00 0.00 0.00 0.00 0.00 0.00 0.00 0.00 0.00 0.00 0.00 0.01 0.02 0.02 0.01 0.01 0.01 0.00 0.00
0.02 0.04 0.01 0.01 0.01 0.00 0.00 0.00 0.00 0.00 0.00 0.00 0.00 0.00 0.00 0.00 0.00 0.00 0.00 0.00 0.00 0.00 0.00 0.00 0.00 0.00 0.00 0.00 0.00 0.00 0.00 0.00 0.00 0.00 0.00 0.00 0.00 0.01 0.01 0.00 0.00 0.00 0.00 0.00
0.00 0.00 0.00 0.00 0.00 0.00 0.02 0.01 0.00 0.00 0.00 0.00 0.00 0.00 0.00 0.00 0.00 0.00 0.00 0.00 0.00 0.00 0.00 0.00 0.00 0.00 0.00 0.00 0.00 0.00 0.00 0.00 0.00 0.00 0.00 0.00 0.00 0.00 0.00 0.00 0.00 0.00 0.00 0.00
0.01 0.01 0.00 0.00 0.00 0.00 0.00 0.00 0.00 0.00 0.00 0.00 0.00 0.00 0.00 0.00 0.00 0.00 0.00 0.00 0.00 0.00 0.00 0.00 0.00 0.00 0.00 0.00 0.00 0.00 0.00 0.00 0.00 0.00 0.00 0.00 0.00 0.00 0.00 0.00 0.00 0.00 0.00 0.00
0.00 0.00 0.00 0.00 0.00 0.00 0.00 0.00 0.00 0.00 0.00 0.00 0.00 0.00 0.00 0.00 0.00 0.00 0.00 0.00 0.00 0.00 0.00 0.00 0.00 0.00 0.00 0.00 0.00 0.00 0.00 0.00 0.00 0.00 0.00 0.00 0.00 0.00 0.00 0.00 0.00 0.00 0.00 0.00
0.00 0.00 0.00 0.00 0.00 0.00 0.00 0.00 0.00 0.01 0.01 0.00 0.00 0.00 0.00 0.00 0.00 0.00 0.00 0.00 0.00 0.00 0.00 0.00 0.00 0.00 0.00 0.00 0.00 0.00 0.00 0.00 0.00 0.00 0.00 0.00 0.00 0.00 0.01 0.01 0.01 0.01 0.01 0.01
0.00 0.00 0.00 0.00 0.00 0.00 0.01 0.02 0.02 0.02 0.00 0.00 0.00 0.00 0.00 0.00 0.00 0.00 0.00 0.00 0.00 0.00 0.00 0.00 0.00 0.00 0.00 0.00 0.00 0.00 0.00 0.00 0.00 0.00 0.00 0.00 0.00 0.01 0.01 0.01 0.01 0.02 0.01 0.01
0.00 0.00 0.01 0.00 0.00 0.01 0.02 0.01 0.01 0.00 0.00 0.00 0.00 0.00 0.00 0.00 0.00 0.00 0.00 0.00 0.00 0.00 0.00 0.00 0.00 0.00 0.00 0.00 0.01 0.01 0.00 0.00 0.01 0.01 0.01 0.01 0.00 0.01 0.02 0.02 0.01 0.01 0.01 0.02
0.00 0.00 0.00 0.01 0.01 0.00 0.00 0.00 0.00 0.00 0.00 0.00 0.00 0.00 0.00 0.00 0.00 0.00 0.00 0.00 0.00 0.00 0.00 0.00 0.00 0.00 0.00 0.00 0.00 0.00 0.00 0.00 0.01 0.01 0.01 0.01 0.01 0.02 0.02 0.02 0.02 0.02 0.02 0.02
0.00 0.01 0.02 0.01 0.01 0.00 0.00 0.00 0.00 0.00 0.00 0.00 0.00 0.00 0.00 0.00 0.01 0.01 0.01 0.00 0.00 0.00 0.00 0.01 0.01 0.00 0.00 0.00 0.00 0.00 0.01 0.04 0.03 0.02 0.02 0.02 0.02 0.02 0.02 0.03 0.02 0.02 0.02 0.03
0.01 0.01 0.00 0.00 0.00 0.00 0.00 0.00 0.00 0.00 0.00 0.00 0.00 0.00 0.00 0.01 0.01 0.01 0.00 0.00 0.00 0.00 0.00 0.01 0.01 0.01 0.01 0.00 0.01 0.01 0.01 0.02 0.02 0.03 0.03 0.04 0.03 0.03 0.03 0.04 0.03 0.03 0.02 0.02
0.00 0.00 0.00 0.00 0.00 0.00 0.00 0.00 0.00 0.00 0.00 0.00 0.00 0.00 0.01 0.01 0.01 0.00 0.00 0.00 0.02 0.02 0.02 0.02 0.02 0.01 0.01 0.01 0.02 0.03 0.04 0.11 0.07 0.04 0.05 0.05 0.05 0.05 0.05 0.05 0.05 0.04 0.04 0.02
0.00 0.00 0.00 0.00 0.00 0.00 0.00 0.00 0.00 0.00 0.00 0.00 0.01 0.01 0.01 0.00 0.00 0.00 0.00 0.01 0.03 0.04 0.02 0.03 0.02 0.01 0.01 0.01 0.05 0.07 0.06 0.07 0.12 0.07 0.06 0.06 0.08 0.11 0.11 0.10 0.08 0.06 0.04 0.05
0.00 0.00 0.00 0.00 0.00 0.00 0.00 0.00 0.00 0.00 0.01 0.02 0.03 0.04 0.02 0.01 0.01 0.01 0.01 0.02 0.02 0.01 0.01 0.01 0.01 0.00 0.01 0.01 0.07 0.11 0.11 0.11 0.10 0.13 0.19 0.21 0.19 0.19 0.21 0.23 0.20 0.17 0.13 0.23
0.00 0.00 0.00 0.00 0.00 0.00 0.00 0.00 0.00 0.00 0.03 0.04 0.04 0.02 0.01 0.02 0.03 0.02 0.01 0.01 0.01 0.02 0.02 0.02 0.03 0.02 0.01 0.02 0.05 0.10 0.14 0.14 0.12 0.13 0.18 0.28 0.31 0.25 0.28 0.31 0.30 0.28 0.30 0.40
0.00 0.00 0.00 0.00 0.00 0.00 0.00 0.00 0.00 0.01 0.04 0.04 0.03 0.01 0.01 0.01 0.02 0.01 0.00 0.00 0.01 0.03 0.02 0.02 0.01 0.01 0.02 0.03 0.04 0.06 0.09 0.11 0.12 0.11 0.14 0.20 0.24 0.25 0.24 0.26 0.27 0.28 0.36 0.41
0.00 0.00 0.00 0.00 0.00 0.00 0.00 0.00 0.00 0.00 0.02 0.04 0.02 0.01 0.01 0.01 0.01 0.01 0.01 0.01 0.01 0.00 0.01 0.01 0.02 0.02 0.03 0.05 0.05 0.06 0.08 0.08 0.09 0.10 0.10 0.12 0.19 0.24 0.26 0.25 0.28 0.32 0.36 0.34
0.00 0.00 0.00 0.00 0.00 0.00 0.00 0.00 0.00 0.01 0.02 0.04 0.03 0.01 0.01 0.01 0.01 0.00 0.00 0.02 0.01 0.01 0.01 0.01 0.02 0.03 0.03 0.04 0.04 0.06 0.06 0.06 0.08 0.09 0.13 0.13 0.15 0.18 0.21 0.22 0.26 0.28 0.29 0.37
0.00 0.00 0.00 0.00 0.00 0.00 0.00 0.00 0.00 0.01 0.02 0.04 0.04 0.02 0.02 0.02 0.02 0.03 0.02 0.01 0.02 0.02 0.01 0.01 0.02 0.02 0.02 0.03 0.05 0.08 0.09 0.07 0.08 0.09 0.13 0.15 0.18 0.20 0.21 0.23 0.23 0.26 0.33 0.39
0.00 0.00 0.00 0.00 0.00 0.00 0.00 0.00 0.00 0.00 0.02 0.03 0.02 0.02 0.01 0.01 0.01 0.00 0.02 0.02 0.02 0.02 0.01 0.02 0.02 0.02 0.01 0.03 0.05 0.08 0.10 0.11 0.12 0.14 0.15 0.16 0.21 0.21 0.19 0.22 0.23 0.25 0.33 0.37
0.00 0.00 0.00 0.00 0.00 0.00 0.00 0.00 0.00 0.00 0.00 0.00 0.00 0.00 0.00 0.00 0.03 0.01 0.01 0.01 0.03 0.02 0.01 0.02 0.02 0.01 0.02 0.03 0.05 0.07 0.11 0.13 0.14 0.13 0.14 0.18 0.21 0.23 0.26 0.26 0.27 0.30 0.34 0.38
0.00 0.00 0.00 0.00 0.00 0.00 0.00 0.00 0.01 0.00 0.00 0.00 0.00 0.00 0.00 0.00 0.01 0.02 0.02 0.02 0.02 0.02 0.01 0.02 0.02 0.02 0.02 0.04 0.05 0.05 0.07 0.11 0.11 0.13 0.13 0.16 0.19 0.22 0.27 0.30 0.30 0.30 0.33 0.38
0.00 0.00 0.00 0.00 0.00 0.00 0.00 0.01 0.01 0.00 0.00 0.00 0.00 0.00 0.00 0.01 0.02 0.02 0.03 0.02 0.01 0.02 0.02 0.02 0.03 0.04 0.04 0.04 0.04 0.04 0.05 0.06 0.10 0.12 0.14 0.16 0.19 0.21 0.23 0.23 0.24 0.27 0.28 0.29